Orbital Elements at Epoch 2459000.5 (2020-May-31.0) TDB
Reference: JPL 21 (heliocentric ecliptic J2000)
Element | Value | Uncertainty (1-sigma) | Units |
e | .1384358233438439 | 4.9678e-08 | |
a | 3.977124078008305 | 4.0644e-08 | au |
q | 3.426547631728599 | 2.0129e-07 | au |
i | 5.840627214360127 | 5.8635e-06 | deg |
node | 125.9319558946464 | 4.7926e-05 | deg |
peri | .02619211755279815 | 5.1134e-05 | deg |
M | 40.32940719901355 | 1.7829e-05 | deg |
tp | 2458675.957576505266 (2019-Jul-11.45757651) | 0.00014316 | TDB |
period | 2897.024294990434 7.93 | 4.4408e-05 1.216e-07 | d yr |
n | .1242654404460867 | 1.9049e-09 | deg/d |
Q | 4.52770052428801 | 4.627e-08 | au |
|
| | Orbit Determination Parameters
Additional Information
|